DW6244 Cozumel MX current weather conditions

sailwx.info

Wind from 090 at 0 knots gusting 5

Air temperature 25.6° C
Dewpoint 23.6° C

Last reported at 2019-Dec-11 02:00 UTC.
Time now 2019-Dec-11 02:27 UTC

Location: N 20°30' W 086°57'.
View on Google Maps.

See reports from other nearby stations

  
Tides and Currents Weather Stations Pressure Air Temp Water Temp Dewpoint Dewpoint Depression Visibility Wind Speed Wind Dir Waves Ship Positions
date/time (UTC)wind fromknots sea level pressurealtimeterstation pressurevisibilityair tempwater tempwave heightnotes
2019-Dec-11 02:00 090 0 gusting 5 25.6
2019-Dec-11 01:50 090 1 gusting 4 25.6
2019-Dec-11 01:40 090 2 gusting 4 26.1
2019-Dec-11 01:30 090 1 gusting 4 26.1
2019-Dec-11 01:20 090 0 gusting 4 26.1
2019-Dec-11 01:10 090 1 gusting 5 26.1
2019-Dec-11 01:00 090 1 gusting 5 26.1
2019-Dec-11 00:50 090 0 gusting 4 26.1
2019-Dec-11 00:40 090 0 gusting 3 26.1
2019-Dec-11 00:30 090 0 gusting 3 26.1
2019-Dec-11 00:20 090 0 gusting 4 26.7
2019-Dec-11 00:10 090 0 gusting 3 26.7
2019-Dec-11 00:00 090 1 gusting 3 26.7
2019-Dec-10 23:50 090 0 gusting 3 26.7
2019-Dec-10 23:40 090 0 gusting 3 26.7
2019-Dec-10 23:30 113 1 gusting 4 26.7
2019-Dec-10 23:20 113 1 gusting 5 27.2
2019-Dec-10 23:10 113 1 gusting 6 27.2
2019-Dec-10 23:00 090 1 gusting 4 27.8
2019-Dec-10 22:50 090 1 gusting 7 27.8
2019-Dec-10 22:40 090 1 gusting 6 27.8
2019-Dec-10 22:30 113 1 gusting 6 28.3
2019-Dec-10 22:20 113 1 gusting 7 28.3
2019-Dec-10 22:10 090 3 gusting 7 28.3
2019-Dec-10 22:00 090 3 gusting 8 28.3
2019-Dec-10 21:50 090 3 gusting 7 28.3
2019-Dec-10 21:40 135 3 gusting 9 28.9
2019-Dec-10 21:30 090 1 gusting 9 28.3
2019-Dec-10 21:20 090 4 gusting 11 28.9
2019-Dec-10 21:10 090 3 gusting 11 28.9
2019-Dec-10 21:00 113 3 gusting 10 28.9
2019-Dec-10 20:50 090 3 gusting 10 28.9
2019-Dec-10 20:40 090 4 gusting 10 28.9
2019-Dec-10 20:30 113 4 gusting 12 28.9
2019-Dec-10 20:20 090 6 gusting 14 28.9
2019-Dec-10 20:10 090 5 gusting 14 28.9
2019-Dec-10 20:00 090 4 gusting 9 29.4
2019-Dec-10 19:50 090 3 gusting 10 29.4
2019-Dec-10 19:40 090 3 gusting 10 28.9
2019-Dec-10 19:30 090 5 gusting 12 29.4
2019-Dec-10 19:20 113 5 gusting 11 29.4
2019-Dec-10 19:10 090 5 gusting 14 29.4
2019-Dec-10 19:00 090 4 gusting 11 28.9
2019-Dec-10 18:50 090 4 gusting 13 28.9
2019-Dec-10 18:40 090 5 gusting 12 28.9
2019-Dec-10 18:30 090 4 gusting 11 28.9
2019-Dec-10 18:20 090 6 gusting 13 28.9
2019-Dec-10 18:10 090 5 gusting 12 28.9
2019-Dec-10 18:00 090 3 gusting 9 28.9
2019-Dec-10 17:50 113 4 gusting 13 28.9
2019-Dec-10 17:40 090 5 gusting 11 28.9
2019-Dec-10 17:30 090 6 gusting 13 28.9
2019-Dec-10 17:20 090 5 gusting 12 28.9
2019-Dec-10 17:10 090 5 gusting 13 28.9
2019-Dec-10 17:00 090 4 gusting 13 28.9
2019-Dec-10 16:50 090 6 gusting 13 28.9
2019-Dec-10 16:40 090 6 gusting 13 28.9
2019-Dec-10 16:30 090 5 gusting 12 28.9
2019-Dec-10 16:20 090 4 gusting 13 28.9
2019-Dec-10 16:10 090 6 gusting 12 28.9
2019-Dec-10 16:00 090 5 gusting 11 28.9
2019-Dec-10 15:50 090 4 gusting 12 28.3
2019-Dec-10 15:40 090 6 gusting 15 28.3
2019-Dec-10 15:30 090 6 gusting 13 28.3
2019-Dec-10 15:20 090 5 gusting 12 28.9
2019-Dec-10 15:10 090 5 gusting 13 28.3
2019-Dec-10 15:00 113 4 gusting 11 28.3
2019-Dec-10 14:50 090 4 gusting 9 27.8
2019-Dec-10 14:40 090 5 gusting 11 28.3
2019-Dec-10 14:30 090 4 gusting 11 27.8
2019-Dec-10 14:20 090 4 gusting 10 27.8
2019-Dec-10 14:10 090 2 gusting 6 27.8
2019-Dec-10 14:00 090 2 gusting 8 27.2
2019-Dec-10 13:50 090 0 gusting 6 26.1
2019-Dec-10 13:40 25.6
2019-Dec-10 13:30 25.0
2019-Dec-10 13:20 24.4
2019-Dec-10 13:10 24.4
2019-Dec-10 13:00 24.4
2019-Dec-10 12:50 24.4
2019-Dec-10 12:40 24.4
2019-Dec-10 12:30 24.4
2019-Dec-10 12:20 24.4
2019-Dec-10 12:10 24.4
2019-Dec-10 12:00 24.4
2019-Dec-10 11:50 24.4
2019-Dec-10 11:40 24.4
2019-Dec-10 11:30 24.4
2019-Dec-10 11:20 24.4
2019-Dec-10 11:10 25.0
2019-Dec-10 11:00 25.0
2019-Dec-10 10:50 090 0 gusting 3 25.0
2019-Dec-10 10:40 090 1 gusting 4 25.0
2019-Dec-10 10:30 090 1 gusting 4 25.0
2019-Dec-10 10:20 068 0 gusting 4 25.0
2019-Dec-10 10:10 25.0
2019-Dec-10 10:00 090 0 gusting 6 25.0
2019-Dec-10 09:50 24.4
2019-Dec-10 09:40 24.4
2019-Dec-10 09:30 24.4
2019-Dec-10 09:20 24.4
2019-Dec-10 09:10 24.4
2019-Dec-10 09:00 24.4
2019-Dec-10 08:50 090 1 gusting 4 24.4
2019-Dec-10 08:40 090 0 gusting 3 24.4
2019-Dec-10 08:30 25.0
2019-Dec-10 08:20 25.0
2019-Dec-10 08:10 24.4
2019-Dec-10 08:00 24.4
2019-Dec-10 07:50 24.4
2019-Dec-10 07:40 24.4
2019-Dec-10 07:30 24.4
2019-Dec-10 07:20 090 1 gusting 4 24.4
2019-Dec-10 07:10 24.4
2019-Dec-10 07:00 24.4
2019-Dec-10 06:50 24.4
2019-Dec-10 06:40 090 0 gusting 4 24.4
2019-Dec-10 06:30 24.4
2019-Dec-10 06:20 24.4
2019-Dec-10 06:10 25.0
2019-Dec-10 06:00 068 0 gusting 2 25.0
2019-Dec-10 05:50 090 1 gusting 3 25.0
2019-Dec-10 05:40 090 0 gusting 4 25.0
2019-Dec-10 05:30 090 1 gusting 3 25.0
2019-Dec-10 05:20 090 0 gusting 4 25.0
2019-Dec-10 05:10 090 1 gusting 4 25.0
2019-Dec-10 05:00 090 0 gusting 5 25.0
2019-Dec-10 04:50 25.0
2019-Dec-10 04:40 25.0
2019-Dec-10 04:30 090 2 gusting 5 25.0
2019-Dec-10 04:20 090 2 gusting 6 25.6
2019-Dec-10 04:10 090 2 gusting 6 25.6
2019-Dec-10 04:00 090 2 gusting 5 25.6
2019-Dec-10 03:50 090 1 gusting 5 25.0
2019-Dec-10 03:40 090 1 gusting 4 25.0
2019-Dec-10 03:30 090 1 gusting 5 25.0
2019-Dec-10 03:20 090 1 gusting 5 25.0
2019-Dec-10 03:10 090 1 gusting 4 25.0
2019-Dec-10 03:00 090 1 gusting 4 25.6
2019-Dec-10 02:50 090 1 gusting 6 25.6
2019-Dec-10 02:40 090 1 gusting 4 25.6
2019-Dec-10 02:30 25.6
2019-Dec-10 02:20 25.6
2019-Dec-10 02:10 090 0 gusting 4 25.6
2019-Dec-10 02:00 090 1 gusting 4 25.6
2019-Dec-10 01:50 090 1 gusting 4 25.6
2019-Dec-10 01:40 090 0 gusting 4 25.6
2019-Dec-10 01:30 090 1 gusting 4 25.6
2019-Dec-10 01:20 090 1 gusting 5 25.6
2019-Dec-10 01:10 090 1 gusting 6 25.6
2019-Dec-10 01:00 090 1 gusting 5 26.1
2019-Dec-10 00:50 090 1 gusting 5 26.1
2019-Dec-10 00:40 090 1 gusting 4 26.1
2019-Dec-10 00:30 090 1 gusting 4 26.1
2019-Dec-10 00:20 090 1 gusting 4 26.1
2019-Dec-10 00:10 068 1 gusting 6 26.1
2019-Dec-10 00:00 090 1 gusting 4 26.1
2019-Dec-09 23:50 090 1 gusting 5 26.1
2019-Dec-09 23:40 068 1 gusting 4 26.1
2019-Dec-09 23:30 068 1 gusting 4 26.1
2019-Dec-09 23:20 068 0 gusting 4 26.1
2019-Dec-09 23:10 090 1 gusting 6 26.1
2019-Dec-09 23:00 090 0 gusting 3 26.7
2019-Dec-09 22:50 090 1 gusting 4 26.7
2019-Dec-09 22:40 090 1 gusting 4 26.7
2019-Dec-09 22:30 090 1 gusting 6 27.2
2019-Dec-09 17:30 068 3 gusting 7 28.3
2019-Dec-09 17:20 090 1 gusting 6 28.3
2019-Dec-09 17:10 068 1 gusting 7 28.3
2019-Dec-09 17:00 090 1 gusting 6 28.3
2019-Dec-09 16:50 090 1 gusting 6 28.3
2019-Dec-09 16:40 068 3 gusting 11 27.8
2019-Dec-09 16:30 068 2 gusting 6 27.8
2019-Dec-09 16:20 090 3 gusting 8 27.8
2019-Dec-09 16:10 090 2 gusting 9 27.8
2019-Dec-09 16:00 090 2 gusting 8 27.8
2019-Dec-09 15:50 090 5 gusting 9 27.8
2019-Dec-09 15:40 090 2 gusting 10 27.2
2019-Dec-09 15:30 090 5 gusting 11 27.2
2019-Dec-09 15:20 090 4 gusting 8 27.2
2019-Dec-09 15:10 068 4 gusting 9 27.2
2019-Dec-09 15:00 068 3 gusting 9 26.7
2019-Dec-09 14:50 090 4 gusting 8 26.7
2019-Dec-09 14:40 090 3 gusting 7 26.7
2019-Dec-09 14:30 090 4 gusting 6 26.1
2019-Dec-09 14:20 068 3 gusting 6 26.1
2019-Dec-09 14:10 090 2 gusting 6 26.1
2019-Dec-09 14:00 068 2 gusting 5 25.6
2019-Dec-09 13:50 090 2 gusting 5 25.6
2019-Dec-09 13:40 090 1 gusting 5 25.0
2019-Dec-09 13:30 090 1 gusting 4 24.4
2019-Dec-09 13:20 068 0 gusting 2 24.4
2019-Dec-09 13:10 090 0 gusting 3 23.9
2019-Dec-09 13:00 23.3
2019-Dec-09 12:50 090 0 gusting 3 23.3
2019-Dec-09 12:40 22.8
2019-Dec-09 12:30 22.8
2019-Dec-09 12:20 22.8
2019-Dec-09 12:10 22.8
2019-Dec-09 12:00 22.8
2019-Dec-09 11:50 22.8
2019-Dec-09 11:40 22.8
2019-Dec-09 11:30 090 0 gusting 3 22.8
2019-Dec-09 11:20 068 0 gusting 3 22.8
2019-Dec-09 11:10 090 1 gusting 3 22.8
2019-Dec-09 11:00 090 0 gusting 3 22.8
2019-Dec-09 10:50 090 0 gusting 2 22.8
2019-Dec-09 10:40 090 0 gusting 3 22.8
2019-Dec-09 10:30 090 1 gusting 3 22.8
2019-Dec-09 10:20 090 0 gusting 3 22.8
2019-Dec-09 10:10 090 0 gusting 4 22.8
2019-Dec-09 10:00 090 0 gusting 4 22.8
2019-Dec-09 09:50 090 0 gusting 2 22.8
2019-Dec-09 09:40 090 1 gusting 4 23.3
2019-Dec-09 09:30 090 1 gusting 5 23.3
2019-Dec-09 09:20 090 1 gusting 4 23.9
2019-Dec-09 09:10 090 2 gusting 6 23.9
2019-Dec-09 09:00 068 1 gusting 5 23.9
2019-Dec-09 08:50 068 2 gusting 6 23.9
2019-Dec-09 08:40 090 2 gusting 6 23.9
2019-Dec-09 08:30 068 2 gusting 6 23.9
2019-Dec-09 08:20 068 2 gusting 5 23.9
2019-Dec-09 08:10 068 1 gusting 4 23.9
2019-Dec-09 08:00 068 0 gusting 4 23.9
2019-Dec-09 07:50 23.9
2019-Dec-09 07:40 23.9
2019-Dec-09 07:30 23.9
2019-Dec-09 07:20 23.9
2019-Dec-09 07:10 23.9
2019-Dec-09 07:00 23.9
2019-Dec-09 06:50 090 0 gusting 4 23.9
2019-Dec-09 06:40 068 1 gusting 4 23.9
2019-Dec-09 06:30 090 1 gusting 5 23.9
2019-Dec-09 06:20 090 2 gusting 5 23.9
2019-Dec-09 06:10 090 2 gusting 5 23.9
2019-Dec-09 06:00 090 1 gusting 5 23.9
2019-Dec-09 05:50 090 0 gusting 4 23.9
2019-Dec-09 05:40 23.9
2019-Dec-09 05:30 068 0 gusting 3 24.4
2019-Dec-09 05:20 090 1 gusting 5 23.9
2019-Dec-09 05:10 090 1 gusting 6 24.4
2019-Dec-09 05:00 090 2 gusting 6 24.4
2019-Dec-09 04:50 090 2 gusting 6 24.4
2019-Dec-09 04:40 090 2 gusting 6 24.4
2019-Dec-09 04:30 068 0 gusting 4 25.0
2019-Dec-09 04:20 25.0
2019-Dec-09 04:10 25.0
2019-Dec-09 04:00 090 0 gusting 4 25.0
2019-Dec-09 03:50 25.0
2019-Dec-09 03:40 25.0
2019-Dec-09 03:30 25.0
2019-Dec-09 03:20 25.0
2019-Dec-09 03:10 25.0
2019-Dec-09 03:00 25.0
2019-Dec-09 02:50 25.0
2019-Dec-09 02:40 25.0
2019-Dec-09 02:30 25.0
2019-Dec-09 02:20 25.0
2019-Dec-09 02:10 25.0
2019-Dec-09 02:00 068 0 gusting 4 25.0